Waukegan, IL

8:33 PM CST on February 25, 2017 (GMT -0600)
Waukegan Regional

Weather History for KUGN - November, 2012

Change the Weather History Date:

Friday, November 9, 2012

  Actual Average Record
Temperature  
Mean Temperature 40 °F -  
Max Temperature 50 °F 50 °F 74 °F (1999)
Min Temperature 29 °F 34 °F 21 °F (2003)
Degree Days  
Heating Degree Days 25 23  
Month to date heating degree days 237 187  
Since 1 July heating degree days 888 793  
Cooling Degree Days 0 0  
Month to date cooling degree days 0 0  
Year to date cooling degree days 983 564  
Moisture  
Dew Point 38 °F    
Average Humidity 86    
Maximum Humidity 100    
Minimum Humidity 71    
Precipitation  
Precipitation 0.00 in 0.09 in 1.16 in (2000)
Month to date precipitation 0.09 0.94  
Year to date precipitation 23.09 31.77  
Sea Level Pressure  
Sea Level Pressure 30.07 in    
Wind  
Wind Speed 4 mph (ESE)    
Max Wind Speed 8 mph    
Max Gust Speed 12 mph    
Visibility 3 miles    
Events      
T = Trace of Precipitation, MM = Missing Value Source: NWS Daily Summary

Daily Weather History Graph

Daily Weather History Graph

Search for Another Location

Airport or City:

Trip Planner

Search our weather history database for the weather conditions in past years. The results will help you decide how hot, cold, wet, or windy it might be!

Date:

Astronomy

Nov. 09, 2012 Rise Set
Actual Time 6:35 AM CST 4:34 PM CST
Civil Twilight 6:05 AM CST 5:04 PM CST
Nautical Twilight 5:31 AM CST 5:38 PM CST
Astronomical Twilight 4:58 AM CST 6:11 PM CST
Moon 1:28 AM CST (11/9) 1:52 PM CST (11/9)
Length of Visible Light 10h 58m
Length of Day
9h 59m
Waning Crescent, 23% of the Moon is Illuminated
Nov 9
Waning Crescent
Nov 13
New
Nov 20
First Quarter
Nov 28
Full
Dec 6
Last Quarter

Hourly Weather History & Observations

Time (CST) Temp. Windchill Dew Point Humidity Pressure Visibility Wind Dir Wind Speed Gust Speed Precip Events Conditions
12:19 AM 32.0 °F - 30.2 °F 93% 30.10 in 2.5 mi Calm Calm - N/A   Clear
12:52 AM 30.9 °F - 30.0 °F 96% 30.13 in 2.5 mi Calm Calm - N/A   Clear
1:52 AM 30.9 °F - 30.0 °F 96% 30.13 in 2.0 mi Calm Calm - N/A   Clear
2:21 AM 32.0 °F 28.7 °F 30.2 °F 93% 30.09 in 3.0 mi ESE 3.5 mph - N/A   Clear
2:52 AM 34.0 °F 31.0 °F 32.0 °F 92% 30.11 in 4.0 mi SSE 3.5 mph - N/A   Clear
3:52 AM 35.1 °F - 33.1 °F 92% 30.10 in 4.0 mi Calm Calm - N/A   Clear
4:52 AM 36.0 °F 32.1 °F 34.0 °F 93% 30.10 in 4.0 mi SSE 4.6 mph - N/A   Clear
5:52 AM 33.1 °F - 33.1 °F 100% 30.11 in 3.0 mi Calm Calm - N/A   Clear
6:16 AM 32.0 °F - 30.2 °F 93% 30.08 in 2.5 mi Calm Calm - N/A   Clear
6:31 AM 32.0 °F - 30.2 °F 93% 30.08 in 1.8 mi Calm Calm - N/A   Clear
6:52 AM 34.0 °F 31.0 °F 32.0 °F 92% 30.10 in 1.5 mi ESE 3.5 mph - N/A   Partly Cloudy
7:08 AM 35.6 °F - 33.8 °F 93% 30.08 in 2.0 mi Calm Calm - N/A   Mostly Cloudy
7:41 AM 39.2 °F 34.2 °F 37.4 °F 93% 30.08 in 3.0 mi SSE 6.9 mph - N/A   Overcast
7:52 AM 41.0 °F 36.4 °F 37.0 °F 86% 30.10 in 3.0 mi SSE 6.9 mph - N/A   Mostly Cloudy
8:52 AM 43.0 °F 39.5 °F 37.0 °F 80% 30.10 in 4.0 mi South 5.8 mph - N/A   Haze
9:52 AM 44.1 °F 41.5 °F 37.9 °F 79% 30.09 in 4.0 mi SSE 4.6 mph - N/A   Haze
10:52 AM 46.0 °F 44.8 °F 39.0 °F 76% 30.07 in 4.0 mi East 3.5 mph - N/A   Haze
11:52 AM 46.9 °F - 39.0 °F 74% 30.06 in 4.0 mi Calm Calm - N/A   Haze
12:52 PM 48.0 °F - 39.9 °F 74% 30.05 in 4.0 mi SE 4.6 mph - N/A   Haze
1:52 PM 46.9 °F - 39.9 °F 77% 30.03 in 4.0 mi ESE 5.8 mph - N/A   Haze
2:52 PM 48.0 °F - 41.0 °F 77% 30.02 in 4.0 mi ESE 5.8 mph - N/A   Haze
3:52 PM 48.0 °F - 41.0 °F 77% 30.01 in 4.0 mi East 3.5 mph - N/A   Haze
4:52 PM 48.0 °F - 43.0 °F 83% 30.01 in 5.0 mi ENE 4.6 mph - N/A   Haze
5:52 PM 48.9 °F - 45.0 °F 86% 30.02 in 4.0 mi ENE 3.5 mph - N/A   Overcast
6:52 PM 48.9 °F - 45.0 °F 86% 30.03 in 3.0 mi NE 3.5 mph - N/A   Overcast
7:52 PM 48.9 °F - 46.0 °F 90% 30.02 in 4.0 mi NE 4.6 mph - N/A   Overcast
8:52 PM 50.0 °F - 46.0 °F 86% 30.02 in 4.0 mi NE 5.8 mph - N/A   Overcast
9:52 PM 50.0 °F - 46.0 °F 86% 30.02 in 4.0 mi NNE 4.6 mph - N/A   Overcast
10:52 PM 48.9 °F - 46.0 °F 90% 30.01 in 4.0 mi NNE 6.9 mph - N/A   Overcast
11:52 PM 50.0 °F - 46.0 °F 86% 30.01 in 4.0 mi NE 5.8 mph - N/A   Overcast